Regional Weather Roundup
Issued by NWS Sterling, VA

Home | Current Version | Previous Version | Graphics & Text | Print | Product List | Glossary On
Versions: 1 2 3 4 5 6 7 8 9 10 11 12 13 14 15 16 17 18 19 20 21 22 23 24 25 26 27 28 29 30 31 32 33 34 35 36 37 38 39 40 41 42 43 44 45 46 47 48 49 50
000
ASUS41 KLWX 182310
RWRLWX

REGIONAL WEATHER ROUNDUP
NATIONAL WEATHER SERVICE BALTIMORE MD/WASHINGTON DC
700 PM EDT SAT APR 18 2015

Note: "FAIR" indicates few or no clouds below 12,000 feet
with no significant weather and/or obstructions to visibility.
 TC=TEMPERATURE CELSIUS

 * =Non NWS site. Station does not report precipitation (e.g. rain,
    snow, etc.), thunder, or fog.

DCZ001-MDZ009-015-VAZ040>042-051-053>054-190000-
WASHINGTON METRO

CITY           SKY/WX    TMP DP  RH WIND       PRES   REMARKS
WASHINGTON NAT CLOUDY    78  49  35 N5        29.95F
DULLES         CLOUDY    75  44  33 CALM      29.96F
ANDREWS AFB    MOCLDY    72  51  47 E5        29.95F
FT BELVOIR     CLOUDY    78  44  29 CALM      29.95F
QUANTICO       CLOUDY    74  49  41 SW3       29.96F
COLLEGE PARK*  CLOUDY    77  41  27 W3        29.95F
LEESBURG*      CLOUDY    77  45  31 SE3       29.96F
MANASSAS*      CLEAR     77  43  29 NE3       29.95F
GAITHERSBURG*  CLOUDY    75  43  31 CALM      30.00F

$$

MDZ006>007-011-014-190000-
BALTIMORE METRO

CITY           SKY/WX    TMP DP  RH WIND       PRES   REMARKS
BWI AIRPORT    CLOUDY    74  46  36 VRB7      29.95S
MD SCIENCE CTR   N/A     76  47  35 MISG      29.95R
MARTIN STATE   MOCLDY    72  52  49 SE6       29.97S
ANNAPOLIS      MOCLDY    71  46  40 S6        29.96F
FORT MEADE*    MOCLDY    73  43  33 CALM      29.98S

$$

MDZ012-015-019>023-190000-
MARYLAND EASTERN SHORE

CITY           SKY/WX    TMP DP  RH WIND       PRES   REMARKS
OCEAN CITY     PTCLDY    63  49  60 S5        29.99R
SALISBURY      PTCLDY    70  50  49 S6        29.98R
BAY BRIDGE AP*   N/A     73  46  38 CALM      29.97S
EASTON*        CLEAR     73  50  43 CALM      30.01S

$$

MDZ017>025-190000-
SOUTHERN MARYLAND

CITY           SKY/WX    TMP DP  RH WIND       PRES   REMARKS
PATUXENT RIVER MOCLDY    69  52  54 E6        29.97S
ST INIGOES     MOCLDY    72  50  45 E3        29.96F
LEONARDTOWN*   MOCLDY    72  45  37 E3        29.99S

$$

MDZ003>005-190000-
NORTH CENTRAL MARYLAND

CITY           SKY/WX    TMP DP  RH WIND       PRES   REMARKS
FREDERICK*     CLEAR     75  39  27 SW3       29.97F
HAGERSTOWN APT CLOUDY    75  45  34 NW6       29.96S
WESTMINSTER*   CLOUDY    75  43  31 SW3       29.97F

$$

MDZ501>502-190000-
WESTERN MARYLAND

CITY           SKY/WX    TMP DP  RH WIND       PRES   REMARKS
OAKLAND*       CLOUDY    64  37  36 N3        30.07S
CUMBERLAND*    CLOUDY    77  37  24 N7        30.01F

$$

VAZ025>031-190000-
SHENANDOAH VALLEY

CITY           SKY/WX    TMP DP  RH WIND       PRES   REMARKS
WINCHESTER*    CLOUDY    73  43  33 SE5       29.97S
FRONT ROYAL*   FAIR      77  45  31 CALM      29.95F
LURAY*         NOT AVBL
NEW MARKET*    NOT AVBL
STAUNTON*      MOCLDY    72  48  41 E3        29.99S
WAYNESBORO*    FAIR      73  49  43 NE3       29.99S

$$

WVZ021-048>050-054>055-190000-
EASTERN WEST VIRGINIA PANHANDLE

CITY           SKY/WX    TMP DP  RH WIND       PRES   REMARKS
MARTINSBURG    CLOUDY    74  46  36 S6        29.96F
PETERSBURG*    MOCLDY    76  38  25 E6        29.99

$$

VAZ036>039-050-190000-
CENTRAL FOOTHILLS

CITY           SKY/WX    TMP DP  RH WIND       PRES   REMARKS
CHARLOTTESVILL MOCLDY    76  48  37 E6        29.96S
CULPEPER*      MOCLDY    79  46  31 CALM      29.96S
ORANGE*        MOCLDY    75  52  43 CALM      29.98R
GORDONSVILLE*  NOT AVBL
WARRENTON*     FAIR      76  49  37 CALM      29.95S

$$

VAZ055>057-190000-
NORTH AND CENTRAL PIEDMONT

CITY           SKY/WX    TMP DP  RH WIND       PRES   REMARKS
FREDERICKSBRG* MOCLDY    78  46  31 N6        29.94F
STAFFORD*      CLOUDY    76  38  26 CALM      30.00S

$$

NCZ024-NYZ072-PAZ021-071-VAZ022-071-190000-
OTHER REGIONAL OBSERVATIONS

CITY           SKY/WX    TMP DP  RH WIND       PRES   REMARKS
NEW YORK CITY  CLEAR     74  41  30 CALM      29.88R
PHILADELPHIA   MOCLDY    79  40  24 W14       29.93R
PITTSBURGH     CLOUDY    73  40  30 N10       30.02S
ROANOKE        PTSUNNY   75  51  43 SE8       29.97R
RICHMOND       CLOUDY    79  51  37 NE6       29.95S
RALEIGH        LGT RAIN  72  64  76 CALM      29.96R

$$

ANZ530>537-190000-
MARINE OBSERVATIONS

STATION/POSITION TIME  TEMP    WIND        PRES
                       AIR SEA DIR/SP/G
                 (UTC) (F)     (DEG/KT/KT) (MB)
THOMAS PT LIGHT  2300   68 54  180/  8/  8 1015.1F
BALT KEY BRIDGE  2200   69     150/  8/  9 1014.2R
COVE POINT       2200   69     340/  3/  3 1014.9R
LEWISETTA        2200   69 61              1014.8R
SOLOMONS ISLAND  2200      56                N/A
PINEY POINT      2200          140/  6/  6   N/A

$$




USA.gov is the U.S. government's official web portal to all federal, state and local government web resources and services.